Location: ??????????
(54.8537°N, 38.8755°E)
Time: 00:40:01
(UTC+00:00)

Tiros 1 - Pass Details

Date: 18 September 2024
Orbit: 623 x 654 km, 48.4° (Epoch: 15 October)

Event Time Altitude Azimuth Distance (km) Brightness Sun altitude
Rises 14:22:50 0° 253° (WSW) 2,899 12.8 9.2°
Reaches altitude 10° 14:25:15 10° 245° (WSW) 1,994 11.7 8.9°
Maximum altitude 14:29:28 37° 178° (S) 972 8.3 8.3°
Drops below altitude 10° 14:33:43 10° 111° (ESE) 2,007 9.2 7.7°
Sets 14:36:10 0° 104° (ESE) 2,919 9.9 7.3°
